Location: Hausen
(51.3804°N, 10.3782°E)
Time: 18:39:24
(UTC+00:00)

Daily predictions for brighter satellites

Satellite Brightness Start Highest point End
(mag) Time Altitude Azimuth Time Altitude Azimuth Time Altitude Azimuth
Cosmos 1709 Rocket 4.4 19:38:22 10° NNW 19:44:27 67° W 19:50:29 10° S
USA 215 3.8 19:39:32 10° ENE 19:46:01 65° NNW 19:52:29 10° W
CZ-4C R/B 3.7 19:40:16 10° NW 19:47:09 49° WSW 19:55:03 10° SSE
Cosmos 158 Rocket 3.9 19:42:37 10° NNW 19:47:33 79° ENE 19:52:29 10° SSE
SL-24 R/B - RUBIN 2 4.3 19:42:12 10° NW 19:47:51 65° NE 19:52:48 10° SE
Cosmos 923 Rocket 4.2 19:44:00 10° NNW 19:49:15 62° ENE 19:54:30 10° SE
Cosmos 44 3.7 19:46:32 10° NW 19:52:00 69° NE 19:57:17 10° SE
Cosmos 1818 4.1 19:46:55 10° NW 19:52:18 53° NE 19:57:39 10° ESE
SOZ 4.1 19:50:32 10° WSW 19:53:07 80° SSE 19:55:25 10° E
Cosmos 2074 Rocket 4.1 19:48:53 10° N 19:55:12 65° ENE 20:01:27 10° SSE
USA 308 4.4 19:52:39 10° W 19:56:17 27° SW 19:59:55 10° SSE
Cosmos 2184 Rocket 4.1 19:50:12 10° N 19:56:24 64° ENE 20:02:30 10° SSE
Cosmos 1782 3.7 19:53:25 10° SSW 19:57:18 53° WNW 20:01:14 10° N
Cosmos 1500 4.0 19:57:04 10° NNW 20:00:42 49° W 20:04:17 10° S
Cosmos 1743 4.3 19:57:55 10° NNE 20:00:56 21° ENE 20:03:57 10° ESE
CRYOSAT 2 4.5 20:00:16 10° S 20:05:10 86° W 20:10:06 10° N
Cosmos 1437 4.0 20:02:47 10° SW 20:05:26 37° WNW 20:08:08 10° N
Meteor 1-5 Rocket 4.3 20:00:42 10° NNW 20:06:03 74° W 20:11:20 10° S
Gbstr 26 Del rocket 4.4 20:00:52 10° WNW 20:08:47 78° SSW 20:15:32 10° ESE
Terra 2.7 20:12:16 11° SE 20:16:24 36° ENE 20:20:44 10° N
Meteor 1-11 Rocket 3.9 20:11:30 10° N 20:17:32 79° ENE 20:23:24 10° SSE
MetOp-B 4.4 20:12:25 10° S 20:17:46 73° WSW 20:23:09 10° NNW
Cosmos 1461 4.4 20:14:36 10° SSE 20:18:05 21° ESE 20:21:32 10° ENE
Cosmos 2297 4.4 20:13:06 10° S 20:18:11 34° ESE 20:23:14 10° NE
Cosmos 1515 Rocket 3.9 20:17:01 10° SSW 20:21:24 70° WNW 20:25:46 10° N
Cosmos 1340 Rocket 3.4 20:17:37 10° N 20:21:33 44° ENE 20:24:45 14° SE
Cosmos 2228 Rocket 3.2 20:19:44 10° S 20:24:06 58° E 20:28:32 10° NNE
Tianhe-1 3.1 20:23:39 10° SSW 20:25:05 13° S 20:25:05 13° S
Cosmos 1869 Rocket 3.5 20:20:46 10° N 20:25:07 72° ENE 20:29:01 13° SSE
Resurs 01 Rocket 2.9 20:23:21 10° SSW 20:27:31 39° W 20:31:41 10° NNW
Cosmos 2112 Rocket 4.1 20:22:20 10° NNW 20:27:44 81° ENE 20:32:23 14° SSE
BREEZE M DEB (TANK) 2.6 20:26:07 10° W 20:29:57 34° SSW 20:31:13 19° SSE
Cosmos 2082 Rocket 2.9 20:24:42 10° NW 20:30:08 50° WSW 20:35:32 10° S
SPOT 1/Viking Rocket 3.9 20:28:11 10° S 20:33:22 67° WSW 20:38:33 10° NNW
ERS-1 Rocket 3.1 20:29:27 13° SSE 20:33:50 69° ENE 20:38:51 10° N
Meteor 2-12 Rocket 4.5 20:33:39 10° NNW 20:39:45 83° W 20:45:37 11° S
Spot 2 Rocket 3.6 20:35:19 11° S 20:40:08 75° WSW 20:45:13 10° NNW
Cosmos 1943 Rocket 2.7 20:35:17 10° S 20:40:25 38° ESE 20:45:33 10° NE
Cosmos 1937 Rocket 4.0 20:36:59 11° S 20:41:30 40° ESE 20:46:19 10° NE
ERBS 2.3 20:39:39 10° WNW 20:42:57 64° SW 20:44:57 21° SE
Meteor 1-10 Rocket 4.5 20:38:22 10° SSW 20:43:59 75° WNW 20:49:45 10° N
Cosmos 1707 Rocket 4.1 20:41:46 16° SSE 20:44:53 42° E 20:49:04 10° NNE
Cosmos 1536 2.9 20:41:26 10° NNW 20:45:29 80° W 20:48:44 15° S
CZ-2C R/B 4.1 20:41:39 10° N 20:46:09 66° WNW 20:50:41 10° SSW
CARTOSAT-1 3.7 20:42:26 13° S 20:46:11 72° WSW 20:50:31 10° NNW
SPOT 5 3.1 20:42:26 15° SSE 20:46:51 85° ENE 20:52:15 10° NNW
DNEPR-1 R/B 4.3 20:43:03 10° SSW 20:48:40 46° SE 20:53:24 10° NE
Cosmos 1271 Rocket 3.7 20:46:57 10° SSW 20:50:51 51° WNW 20:54:46 10° N
Cosmos 2341 Rocket 4.2 20:46:28 10° N 20:52:51 63° ENE 20:57:43 18° SSE
Cosmos 1680 Rocket 3.9 20:47:55 10° NNW 20:53:10 59° WSW 20:57:31 15° S
Cosmos 1238 Rocket 4.0 20:49:46 10° N 20:55:36 53° ENE 20:59:05 20° SE
ISS -3.6 20:52:54 10° SW 20:56:11 50° SSE 20:59:28 10° E
SL-24 DEB 4.2 20:52:58 17° SSE 20:56:26 75° E 21:01:04 10° N
Cosmos 2278 Rocket 3.4 20:52:00 10° WSW 20:57:24 45° NW 21:02:51 10° NNE
Cosmos 2084 Rocket 4.0 20:54:00 10° NW 20:58:07 49° SW 21:00:52 20° SSE
Cosmos 1544 3.1 20:55:14 10° NNW 20:58:51 74° W 21:01:17 20° S
SJ 16-02 2.9 20:55:38 10° SW 20:59:46 38° WNW 21:03:56 10° N
Cosmos 2369 Rocket 3.0 20:58:46 19° SSE 21:01:49 31° ESE 21:06:43 10° NE
Cosmos 1975 3.8 20:59:44 10° N 21:03:23 33° ENE 21:05:24 21° ESE
Cosmos 1733 Rocket 3.0 21:05:33 10° N 21:09:53 71° ENE 21:12:25 24° SSE
SL-8 Rocket 4.1 21:06:08 10° N 21:12:28 68° ENE 21:16:50 21° SSE
ARIANE 5 R/B 3.7 21:10:14 12° SSW 21:13:53 37° W 21:17:57 10° NNW
Meteor 2-9 Rocket 4.3 21:09:28 10° N 21:15:14 67° ENE 21:18:52 22° SSE
RESURS DK-1 3.0 21:11:11 10° NNW 21:15:16 48° NE 21:17:43 21° ESE
SL-27 R/B 4.0 21:15:08 10° N 21:17:56 24° ENE 21:19:32 17° E
BREEZE-M DEB (TANK) 2.8 21:17:35 10° WSW 21:18:57 23° SW 21:18:57 23° SW
Cosmos 372 Rocket 4.2 21:20:07 22° S 21:23:13 50° ESE 21:28:09 10° NNE
USA 215 4.0 21:22:17 10° E 21:28:38 56° N 21:34:59 10° WNW
Cosmos 1898 Rocket 3.8 21:23:28 10° SSW 21:28:47 70° WNW 21:34:08 10° NNE
Cosmos 1908 Rocket 4.2 21:25:25 10° N 21:29:46 46° ENE 21:31:53 26° SE
ATLAS 2AS CENTAUR R/B 3.7 21:23:23 10° NW 21:29:54 36° WSW 21:34:29 17° S
Cosmos 1818 4.4 21:30:44 10° NW 21:35:47 39° WSW 21:38:46 22° S
Cosmos 1743 3.8 21:33:13 10° NNW 21:36:51 39° W 21:39:06 20° SSW
Cosmos 864 Rocket 4.4 21:31:25 10° N 21:37:37 80° E 21:41:23 25° SSE
Cosmos 1959 Rocket 4.4 21:33:55 10° N 21:40:11 85° E 21:43:59 25° SSE
Cosmos 2242 Rocket 4.3 21:44:02 29° SE 21:45:34 38° E 21:49:45 10° NNE
Meteor 1-19 Rocket 4.1 21:43:17 23° S 21:46:45 83° E 21:52:13 10° NNE
BREEZE-M R/B 2.8 21:46:10 10° W 21:48:00 35° SW 21:48:00 35° SW
H-2A R/B 3.9 21:45:18 10° N 21:49:26 59° WNW 21:52:23 18° SW
Cosmos 2297 Rocket 4.4 21:45:58 10° NNW 21:50:09 20° NE 21:54:19 10° E
Cosmos 44 Rocket 3.7 21:47:46 10° NW 21:53:01 67° NE 21:56:12 23° ESE
NOSS 2-1 (C) 4.4 21:48:51 10° NW 21:53:16 60° NE 21:57:57 17° ESE
Meteor 2-4 Rocket 3.9 21:51:00 28° SSE 21:53:55 59° E 21:59:22 10° NNE
Terra 3.0 21:51:09 18° SSW 21:54:09 35° W 21:58:32 10° NNW
Cosmos 1461 3.3 21:52:02 10° SW 21:56:44 75° NW 22:01:21 10° NE
Okean 1-7 3.5 21:56:31 33° SE 21:57:49 44° E 22:01:56 10° NNE
Cosmos 2150 Rocket 4.4 21:56:17 30° SSE 21:58:25 45° ESE 22:03:25 10° NE
NOSS 2-1 (D) 4.3 21:55:43 10° NW 22:00:11 65° NE 22:04:37 19° ESE
Cosmos 1862 Rocket 3.8 21:57:50 24° SSW 22:00:17 65° WNW 22:04:37 10° N
Cosmos 468 4.5 21:55:14 10° NNW 22:00:33 87° WSW 22:03:06 31° SSE
Cosmos 1703 Rocket 3.9 22:00:16 35° SSE 22:01:45 50° E 22:06:03 10° NNE
Cosmos 1782 Rocket 3.9 21:57:57 10° N 22:02:20 54° ENE 22:04:03 33° SE
Okean 1 4.1 22:00:55 21° SW 22:03:17 48° WNW 22:07:09 10° N
Cosmos 1833 4.2 21:57:40 10° NNW 22:03:27 84° WSW 22:06:28 30° SSE
Cosmos 1125 Rocket 4.0 22:04:18 31° SSE 22:06:06 42° ESE 22:10:59 10° NE
ATLAS CENTAUR R/B 1.2 22:10:15 47° SSE 22:10:37 50° SE 22:14:20 10° NE
Cosmos 1607 4.0 22:06:38 18° SSW 22:11:27 67° SE 22:17:55 10° NE
COSMOS 2487 4.0 22:08:43 10° N 22:11:41 27° ENE 22:12:53 21° E
Cosmos 1821 Rocket 4.1 22:07:43 10° N 22:14:10 73° ENE 22:17:36 29° SSE
Cosmos 2366 rocket 4.4 22:09:13 10° NNW 22:15:16 57° W 22:18:59 24° SSW
Cosmos 2181 Rocket 4.3 22:16:13 19° SSW 22:20:42 60° WNW 22:26:47 10° N
Cosmos 1943 Rocket 3.1 22:18:42 10° SW 22:24:06 46° NW 22:29:30 10° NNE
Meteor 1-13 Rocket 4.5 22:22:21 32° SSE 22:24:40 54° E 22:30:02 10° NNE
Spot 4 4.0 22:30:35 35° S 22:32:33 63° WSW 22:37:23 10° NNW
ISS -3.8 22:29:33 10° W 22:32:55 84° N 22:36:18 10° E
Cosmos 1867 3.5 22:28:40 17° SW 22:32:55 88° NW 22:38:27 10° NE
Cosmos 1656 Rocket 3.6 22:30:07 26° SSW 22:33:19 88° ESE 22:38:56 10° NNE
Cosmos 1975 4.4 22:36:25 10° NNW 22:39:43 25° W 22:41:09 20° WSW
Cosmos 1733 3.8 22:39:14 10° N 22:42:56 47° ENE 22:43:52 38° ESE
Cosmos 1400 Rocket 4.4 22:41:00 10° N 22:44:34 28° ENE 22:46:16 21° ESE
Cosmos 2369 Rocket 2.8 22:40:29 12° SW 22:45:35 55° NW 22:51:11 10° NNE
Cosmos 2344 4.3 22:38:21 10° NW 22:47:23 75° SW 22:56:38 21° SSE
Cosmos 724 4.5 22:44:34 31° S 22:47:27 60° ESE 22:53:37 10° NE
ALOS 2 2.6 22:47:43 43° S 22:49:04 72° WSW 22:53:29 10° NNW
BREEZE-M DEB (TANK) 4.4 22:37:15 10° WNW 22:50:54 45° SW 22:52:48 33° S
SeaSat 1 4.1 22:48:01 10° ENE 22:51:20 18° ESE 22:52:12 17° ESE
Okean 3 3.4 22:51:44 47° S 22:52:55 86° ESE 22:57:10 10° NNE
SL-27 R/B 3.6 22:50:04 10° NW 22:52:59 28° WSW 22:53:02 28° WSW
RESURS DK-1 3.9 22:49:42 10° NW 22:53:02 23° WSW 22:53:36 22° WSW
Lacrosse 5 2.2 22:54:17 39° SSE 22:55:11 43° SE 22:59:59 10° ENE
Cosmos 1356 Rocket 3.7 22:52:18 10° NNW 22:56:33 58° W 22:57:43 42° SSW
NOSS 2-1 (E) 4.2 22:52:47 10° NW 22:57:36 68° SW 23:00:42 31° SSE
Nimbus 7 Rocket 4.5 22:52:38 10° NNE 22:58:31 65° ESE 23:01:10 34° S
Cosmos 1269 Rocket 3.9 22:55:38 10° NNW 23:00:58 87° WSW 23:03:10 36° SSE
Cosmos 1300 Rocket 3.5 22:57:14 10° N 23:01:39 89° W 23:02:55 46° S
Nadezhda 3 Rocket 4.0 22:59:44 30° SSW 23:03:02 75° W 23:09:16 10° N
USA 215 3.3 23:04:50 10° ESE 23:11:22 80° NNE 23:17:56 10° WNW
Aureole 2 4.0 23:08:54 10° NNW 23:11:58 86° WSW 23:12:01 84° SSW
Thor Agena Rocket 3.7 23:08:21 10° NNE 23:13:37 66° ESE 23:15:40 37° S
Sich 1 Rocket 3.8 23:10:50 10° NNW 23:15:20 60° W 23:16:39 41° SSW
Cosmos 1805 3.4 23:13:53 10° NNW 23:17:44 59° W 23:18:27 49° SW
COSMOS 2455 2.9 23:11:47 10° NW 23:17:52 82° NE 23:21:45 23° SE
Cosmos 1726 3.5 23:16:07 10° N 23:19:29 32° ENE 23:20:43 25° ESE
Cosmos 1605 Rocket 4.0 23:14:05 10° N 23:20:24 81° E 23:23:40 31° SSE
Cosmos 1378 4.1 23:22:00 31° WSW 23:23:01 38° WNW 23:26:31 10° N
MTI 4.2 23:21:43 10° N 23:24:38 46° WNW 23:24:49 45° W
Cosmos 1066 Rocket 4.3 23:22:33 31° SSW 23:25:18 70° WNW 23:30:54 10° N
Okean 2 Rocket 3.1 23:22:34 10° NNW 23:26:57 65° W 23:28:09 44° SSW
Meteor 1-15 Rocket 4.5 23:21:57 10° NNW 23:27:35 59° W 23:30:02 33° SSW
Cosmos 2151 Rocket 3.6 23:24:28 10° NNW 23:29:00 78° W 23:30:21 45° S
Cosmos 2227 Rocket 2.8 23:27:26 10° NNW 23:33:01 55° NE 23:37:44 14° SE
SAR-Lupe-2 4.5 23:31:14 10° N 23:34:38 41° WNW 23:35:36 33° WSW
Cosmos 2297 Rocket 2.4 23:29:34 10° NNW 23:35:16 70° ENE 23:39:09 21° SE
PSLV R/B 3.7 23:30:57 10° NNE 23:35:16 61° ESE 23:36:26 43° SSE
Cosmos 1766 3.5 23:32:22 10° NNW 23:36:15 54° W 23:36:58 46° SW
EO 1 Delta rocket 4.4 23:34:38 34° S 23:37:15 86° W 23:44:06 10° N
Timation 2 Rocket 4.0 23:39:10 10° NNW 23:45:10 73° NE 23:49:54 17° SE
COSMOS 2487 3.8 23:43:36 10° NW 23:46:11 25° W 23:46:11 25° W
Cosmos 1953 4.2 23:44:34 10° NNE 23:47:54 25° ENE 23:50:30 14° ESE
TSX-5 4.1 23:46:17 10° NNW 23:49:37 56° NE 23:51:39 25° ESE
ATLAS CENTAUR R/B 3.0 23:46:25 10° W 23:49:41 28° NNW 23:53:07 10° NNE
Cosmos 1378 Rocket 3.4 23:53:20 44° S 23:54:40 83° E 23:59:00 10° NNE
Cosmos 1470 2.7 23:52:00 10° N 23:55:58 90° E 23:57:01 47° S
Cosmos 1975 Rocket 4.5 23:54:16 21° SE 23:56:08 29° E 23:59:52 10° NNE
